Change the Weather History Date:

Sunday, January 19, 2014

  Actual Average Record
Temperature  
Mean Temperature 44 °F -  
Max Temperature 62 °F 43 °F 66 °F (2003)
Min Temperature 26 °F 20 °F 5 °F (2007)
Degree Days  
Heating Degree Days 21    
Month to date heating degree days 633  
Moisture  
Dew Point 5 °F    
Average Humidity 25    
Maximum Humidity 40    
Minimum Humidity 10    
Precipitation  
Precipitation 0.00 in - - ()
Month to date precipitation 0.19  
Year to date precipitation 0.19  
Sea Level Pressure  
Sea Level Pressure 30.01 in    
Wind  
Wind Speed 9 mph (WSW)    
Max Wind Speed 17 mph    
Max Gust Speed 21 mph    
Visibility 10 miles    
Events      
Averages and records for this station are not official NWS values.
T = Trace of Precipitation, MM = Missing Value Source: NWS Daily Summary

Daily Weather History Graph

Daily Weather History Graph

Search for Another Location

Airport or City:

Trip Planner

Search our weather history database for the weather conditions in past years. The results will help you decide how hot, cold, wet, or windy it might be!

Date:

Astronomy

Jan. 19, 2014 Rise Set
Actual Time 7:16 AM MST 5:04 PM MST
Civil Twilight 6:47 AM MST 5:33 PM MST
Nautical Twilight 6:14 AM MST 6:06 PM MST
Astronomical Twilight 5:42 AM MST 6:38 PM MST
Moon 8:43 PM MST (1/19) 8:48 AM MST (1/19)
Length of Visible Light 10h 46m
Length of Day
9h 48m
Waning Gibbous, 89% of the Moon is Illuminated
Jan 19
Waning Gibbous
Jan 23
Last Quarter
Jan 30
New
Feb 6
First Quarter
Feb 14
Full

Hourly Weather History & Observations

Time (MST) Temp. Windchill Dew Point Humidity Pressure Visibility Wind Dir Wind Speed Gust Speed Precip Events Conditions
12:53 AM 37.0 °F 30.4 °F 8.1 °F 30% 30.08 in 10.0 mi SW 9.2 mph - N/A   Clear
1:53 AM 42.1 °F 34.5 °F 3.0 °F 20% 30.05 in 10.0 mi SW 15.0 mph - N/A   Clear
2:53 AM 39.9 °F 33.4 °F 1.0 °F 20% 30.05 in 10.0 mi SW 10.4 mph - N/A   Clear
3:53 AM 39.0 °F 32.8 °F -0.0 °F 19% 30.04 in 10.0 mi SSW 9.2 mph - N/A   Clear
4:53 AM 37.9 °F 30.9 °F 1.0 °F 21% 30.05 in 10.0 mi SSW 10.4 mph - N/A   Clear
5:53 AM 39.9 °F 33.4 °F -0.9 °F 18% 30.06 in 10.0 mi SW 10.4 mph - N/A   Clear
6:53 AM 37.9 °F 32.1 °F 1.0 °F 21% 30.10 in 10.0 mi WSW 8.1 mph - N/A   Clear
7:53 AM 39.0 °F 32.8 °F 3.9 °F 23% 30.09 in 10.0 mi WSW 9.2 mph - N/A   Clear
8:53 AM 42.1 °F - 9.0 °F 26% 30.09 in 10.0 mi Calm Calm - N/A   Clear
9:53 AM 52.0 °F - -0.0 °F 12% 30.06 in 10.0 mi WSW 11.5 mph - N/A   Clear
10:53 AM 55.9 °F - -0.9 °F 10% 30.06 in 10.0 mi WSW 4.6 mph - N/A   Clear
11:53 AM 57.9 °F - -0.0 °F 10% 29.99 in 10.0 mi WSW 6.9 mph - N/A   Partly Cloudy
12:53 PM 60.1 °F - 3.9 °F 11% 29.95 in 10.0 mi WNW 8.1 mph - N/A   Partly Cloudy
1:53 PM 62.1 °F - 6.1 °F 11% 29.91 in 10.0 mi NNW 10.4 mph - N/A   Partly Cloudy
2:53 PM 62.1 °F - 6.1 °F 11% 29.92 in 10.0 mi NW 10.4 mph - N/A   Partly Cloudy
3:53 PM 59.0 °F - 7.0 °F 13% 29.94 in 10.0 mi NW 11.5 mph - N/A   Partly Cloudy
4:53 PM 54.0 °F - 9.0 °F 17% 29.97 in 10.0 mi NW 8.1 mph - N/A   Partly Cloudy
5:53 PM 50.0 °F - 8.1 °F 18% 29.99 in 10.0 mi NW 8.1 mph - N/A   Partly Cloudy
6:53 PM 48.0 °F - 8.1 °F 20% 30.01 in 10.0 mi West 6.9 mph - N/A   Partly Cloudy
7:53 PM 36.0 °F 29.6 °F 14.0 °F 41% 30.04 in 10.0 mi SSW 8.1 mph - N/A   Partly Cloudy
8:53 PM 39.9 °F 32.9 °F 10.9 °F 31% 30.01 in 10.0 mi SW 11.5 mph - N/A   Partly Cloudy
9:53 PM 41.0 °F 34.7 °F 9.0 °F 27% 29.97 in 10.0 mi SW 10.4 mph - N/A   Partly Cloudy
10:53 PM 37.9 °F 32.1 °F 9.0 °F 30% 29.97 in 10.0 mi SW 8.1 mph - N/A   Scattered Clouds
11:53 PM 39.9 °F 32.5 °F 7.0 °F 26% 29.94 in 10.0 mi WSW 12.7 mph - N/A   Partly Cloudy